CAPE
0 0 0 0 0 5 1 1 0 3 0 1 0 0 0 0 6 5 2 0 0 0
0 0 0 0 0 0 0 0 0 0 0 1 1 0 2 27 19 0 0 0 2 5
0 0 0 0 0 0 0 0 0 0 0 0 0 0 1 3 1 5 0 0 0 0
0 0 0 0 0 0 0 0 0 0 0 0 0 0 0 0 0 0 0 0 0 1
0 0 0 0 0 0 0 0 0 0 0 0 0 0 0 0 0 0 0 0 0 1
0 0 0 0 0 0 0 0 0 0 0 0 0 0 0 0 0 0 0 0 1 1
0 0 0 0 0 0 0 0 0 0 0 0 0 0 0 0 0 0 0 0 0 2
0 0 0 0 0 0 0 0 0 0 0 0 0 0 0 0 0 0 0 0 0 0
0 0 0 0 1 0 0 0 0 0 0 0 0 0 0 0 0 0 0 0 0 0
0 0 0 0 0 0 1 0 2 0 0 0 0 0 0 0 0 0 0 0 0 0
0 0 0 0 0 0 3 1 2 0 1 0 1 1 0 0 0 0 0 0 0 0
0 0 1 2 2 2 1 1 2 1 2 1 2 2 0 0 0 2 2 2 1 0
0 1 1 2 2 3 3 2 2 2 2 2 2 4 2 0 0 0 0 0 0 0
0 1 2 2 2 2 2 1 1 1 1 1 4 3 4 1 0 1 1 2 2 4
CIN
0 0 0 0 -13 -3 -1 0 0 0 -1 -3 0 0 0 0 -94 -106 -19 0 0 0
0 0 0 0 0 -3 -12 0 0 0 0 0 -2 0 -8 -13 -22 -5 0 -12 -125 -139
-1 0 0 0 0 0 0 0 0 0 0 0 0 0 -1 -8 -11 -20 -6 0 0 0
0 0 0 0 0 0 0 0 0 0 0 0 0 0 0 -1 0 0 0 0 0 -74
-1 0 0 0 0 0 0 0 0 0 0 0 0 0 0 0 0 0 0 0 -10 -58
0 -5 0 0 0 0 0 0 0 0 0 0 0 0 0 0 0 0 0 0 -68 -94
-4 0 0 0 0 0 0 0 0 0 0 0 0 0 0 0 0 0 0 0 0 -38
0 0 0 0 0 0 0 0 0 0 0 0 0 0 0 0 0 0 0 0 0 0
0 0 0 0 0 0 0 0 0 0 0 0 0 0 0 0 0 0 0 0 0 0
0 0 0 0 0 0 0 0 0 0 0 0 0 0 0 0 0 0 0 0 0 0
0 0 0 0 0 0 0 0 0 0 0 0 0 0 0 0 0 0 0 0 0 0
0 0 0 0 0 0 0 0 0 0 0 0 0 0 0 0 0 0 0 0 0 0
0 0 0 0 0 0 0 0 0 0 0 0 0 0 0 0 0 0 0 0 0 0
0 0 0 0 0 0 0 0 0 0 0 0 0 0 0 0 0 0 0 0 0 0
Wind_Speed
6 4 4 5 5 6 4 5 5 10 12 11 8 9 6 6 4 5 5 6 5 4
5 5 5 5 4 4 5 5 7 7 10 12 13 11 10 7 9 7 6 7 5 5
6 5 5 5 4 5 4 5 7 9 9 9 11 13 14 13 10 10 8 6 8 8
5 6 6 6 5 5 4 5 5 7 9 10 11 11 11 11 11 12 11 10 10 12
6 7 7 8 9 8 7 6 7 7 8 9 10 11 12 12 11 12 13 13 13 14
5 7 7 7 8 10 9 9 8 8 8 8 9 10 11 12 13 13 13 14 14 15
6 6 5 5 6 6 7 8 10 11 11 11 10 11 12 12 13 13 13 14 16 16
4 3 5 6 6 6 6 7 8 8 9 10 11 9 12 13 14 14 15 15 15 15
9 8 10 8 5 4 7 9 8 9 10 10 8 11 16 15 13 15 16 16 16 16
10 11 10 9 9 9 8 9 7 7 10 12 3 17 15 12 15 14 14 15 15 14
11 11 10 11 11 10 9 10 11 11 12 13 12 17 14 11 6 12 15 15 10 9
11 11 11 12 11 10 9 10 11 12 13 12 13 22 17 10 2 4 12 13 15 10
11 11 11 10 10 9 9 11 9 11 12 17 13 23 22 14 5 9 8 10 11 20
12 11 10 10 10 9 9 9 10 11 11 13 16 18 27 23 10 8 9 9 10 12
Wind_Direction
162 152 151 163 156 169 168 168 148 175 163 174 146 160 162 158 157 173 196 180 182 170
161 152 162 157 155 156 154 153 157 156 159 167 182 185 189 200 207 191 192 206 202 207
170 158 148 147 165 154 156 159 150 161 170 174 180 187 192 206 211 207 210 206 205 212
160 162 152 163 173 177 161 173 167 173 171 177 183 184 192 201 200 206 214 211 210 216
163 173 173 182 182 179 185 185 186 183 185 187 188 190 199 206 212 211 215 217 219 230
177 187 193 190 180 180 182 190 192 188 195 196 201 201 205 208 212 214 218 221 224 226
190 199 202 195 188 183 189 191 194 199 206 208 208 212 213 215 223 227 227 226 229 227
18 213 199 206 209 201 198 204 206 206 217 221 220 216 220 224 226 228 231 232 231 228
35 43 39 35 359 238 226 231 226 221 222 222 224 220 216 219 222 226 230 236 238 237
28 37 23 31 33 22 13 10 346 296 244 234 206 15 1 271 234 236 235 238 242 243
31 35 28 33 29 24 26 34 31 24 20 31 36 4 349 334 297 260 250 250 285 336
32 34 35 37 32 28 43 47 48 42 37 39 24 7 359 338 346 3 48 50 39 31
38 40 45 42 42 46 57 62 58 54 45 39 31 21 21 19 55 73 78 63 52 34
39 44 41 45 45 46 53 62 57 54 46 40 35 34 38 41 50 66 71 63 51 46